Weather History for Luxor, Egypt

Change the Weather History Date:

Friday, May 2, 2014

  Actual Average Record
Temperature  
Mean Temperature 86 °F -  
Max Temperature 103 °F 99 °F - ()
Min Temperature 68 °F 70 °F - ()
Cooling Degree Days 20    
Growing Degree Days 36 (Base 50)    
Moisture  
Dew Point 46 °F    
Average Humidity 20    
Maximum Humidity 31    
Minimum Humidity 10    
Precipitation  
Precipitation 0.00 in 0.00 in - ()
Sea Level Pressure  
Sea Level Pressure 29.84 in    
Wind  
Wind Speed 3 mph ()    
Max Wind Speed 9 mph    
Max Gust Speed -    
Visibility 5.5 miles    
Events      
T = Trace of Precipitation, MM = Missing Value Source: Averaged Metar Reports

Daily Weather History Graph

Daily Weather History Graph

Search for Another Location

Airport:

Trip Planner

Search our weather history database for the weather conditions in past years. The results will help you decide how hot, cold, wet, or windy it might be!

Date:

Astronomy

May. 02, 2014 Rise Set
Actual Time 5:12 AM EET 6:20 PM EET
Civil Twilight 4:47 AM EET 6:44 PM EET
Nautical Twilight 4:19 AM EET 7:13 PM EET
Astronomical Twilight 3:49 AM EET 7:43 PM EET
Moon 7:38 AM EET (5/2) 9:20 PM EET (5/2)
Length of Visible Light 13h 57m
Length of Day
13h 08m
Waxing Crescent, 11% of the Moon is Illuminated
May 2
Waxing Crescent
May 7
First Quarter
May 14
Full
May 21
Last Quarter
May 28
New

Hourly Weather History & Observations

Time (EET) Temp. Heat Index Dew Point Humidity Pressure Visibility Wind Dir Wind Speed Gust Speed Precip Events Conditions
12:00 AM 82.4 °F - 39.2 °F 21% 29.83 in - South 2.3 mph - N/A   Clear
1:00 AM 80.6 °F - 44.6 °F 28% 29.83 in - Calm Calm - N/A   Clear
2:00 AM 76 °F - 40 °F 18% 29.83 in 6 mi Calm Calm - -  
4:00 AM 73.4 °F - 35.6 °F 25% 29.83 in - Calm Calm - N/A   Clear
5:00 AM 72 °F - 38 °F 19% 29.82 in 6 mi South 2.3 mph - -  
5:00 AM 71.6 °F - 39.2 °F 31% 29.83 in - South 2.3 mph - N/A   Clear
6:00 AM 73.4 °F - 41.0 °F 31% 29.83 in - Calm Calm - N/A   Clear
7:00 AM 77.0 °F - 41.0 °F 28% 29.86 in - South 2.3 mph - N/A   Clear
8:00 AM 85 °F - 50 °F 20% 29.87 in 4 mi SSW 2.3 mph - -   Haze
8:00 AM 84.2 °F - 50.0 °F 30% 29.89 in 3.7 mi SSW 2.3 mph - N/A   Unknown
9:00 AM 91.4 °F - 48.2 °F 23% 29.89 in 5.0 mi West 5.8 mph - N/A   Unknown
10:00 AM 95.0 °F - 48.2 °F 20% 29.89 in - West 4.6 mph - N/A   Clear
11:00 AM 98 °F - 47 °F 10% 29.87 in 6 mi West 6.9 mph - -   Scattered Clouds
11:00 AM 98.6 °F - 46.4 °F 17% 29.89 in - West 6.9 mph - N/A   Clear
12:00 PM 100.4 °F - 50.0 °F 18% 29.86 in - West 6.9 mph - N/A   Clear
1:00 PM 100.4 °F - 50.0 °F 18% 29.83 in - WNW 5.8 mph - N/A   Clear
2:00 PM 102 °F - 51 °F 10% 29.80 in 6 mi West 4.6 mph - -   Scattered Clouds
2:00 PM 102.2 °F - 50.0 °F 17% 29.80 in - West 4.6 mph - N/A   Clear
3:00 PM 102.2 °F - 51.8 °F 18% 29.80 in - SW 2.3 mph - N/A   Clear
4:00 PM 102.2 °F 100.4 °F 53.6 °F 20% 29.80 in - NW 6.9 mph - N/A   Clear
5:00 PM 99 °F - 54 °F 14% 29.78 in 6 mi WNW 9.2 mph - -   Clear
5:00 PM 98.6 °F 96.4 °F 53.6 °F 22% 29.80 in - WNW 9.2 mph - N/A   Clear
6:00 PM 95.0 °F 92.7 °F 53.6 °F 25% 29.80 in - WNW 5.8 mph - N/A   Clear
7:00 PM 89.6 °F - 50.0 °F 26% 29.83 in - West 2.3 mph - N/A   Clear
8:00 PM 89 °F - 44 °F 12% 29.83 in 6 mi West 4.6 mph - -   Clear
8:00 PM 87.8 °F - 44.6 °F 22% 29.83 in - West 4.6 mph - N/A   Clear
9:00 PM 87.8 °F - 41.0 °F 19% 29.86 in - SW 2.3 mph - N/A   Clear
10:00 PM 84.2 °F - 39.2 °F 20% 29.89 in - SSW 3.5 mph - N/A   Clear
11:00 PM 85 °F - 36 °F 10% 29.87 in 6 mi Calm Calm - -  
11:00 PM 84.2 °F - 37.4 °F 19% 29.89 in - Calm Calm - N/A   Clear